Skip to content
You are here: Gozo Weather
Gozo Weather Station for the very latest live weather conditions from Gozo and Malta
 
 TIME   TEMPERATURE   WINDSPEED   DIRECTION   HUMIDITY   BAROMETER   RAINFALL 
2:05 14.1°C (57.4°F) 18.5 kmh (11.5 mph) W 52% 1001.0hPa (29.56 inHg) 0.0mm (0.00 in.)
1:05 14.1°C (57.4 °F) 14.8 kmh (9.2 mph) W 55% 1000.0hPa (29.53 inHg) 0.0mm (0.00 in.)
12:05 14.1°C (57.4 °F) 20.4 kmh (12.7 mph) W 57% 1001.0hPa (29.56 inHg) 0.0mm (0.00 in.)
11:05 13.8°C (56.8 °F) 16.7 kmh (10.4 mph) WSW 59% 1001.0hPa (29.56 inHg) 0.0mm (0.00 in.)
10:05 13.5°C (56.3 °F) 14.8 kmh (9.2 mph) W 60% 1000.0hPa (29.53 inHg) 0.0mm (0.00 in.)
8:59 13.1°C (55.6 °F) 14.8 kmh (9.2 mph) WSW 61% 1000.0hPa (29.53 inHg) 0.0mm (0.00 in.)
7:59 12.2°C (54.0 °F) 11.1 kmh (6.9 mph) WSW 63% 999.0hPa (29.50 inHg) 0.0mm (0.00 in.)
6:59 12.3°C (54.1 °F) 16.7 kmh (10.4 mph) WNW 62% 998.0hPa (29.47 inHg) 0.0mm (0.00 in.)
5:59 12.4°C (54.3 °F) 1.9 kmh (1.2 mph) WNW 65% 997.0hPa (29.44 inHg) 0.0mm (0.00 in.)
4:59 12.5°C (54.5 °F) 16.7 kmh (10.4 mph) W 67% 996.0hPa (29.41 inHg) 0.0mm (0.00 in.)
3:59 12.7°C (54.9 °F) 13.0 kmh (8.1 mph) WSW 70% 996.0hPa (29.41 inHg) 0.0mm (0.00 in.)
2:59 12.9°C (55.2 °F) 18.5 kmh (11.5 mph) WNW 73% 996.0hPa (29.41 inHg) 0.0mm (0.00 in.)
1:59 13.1°C (55.6 °F) 14.8 kmh (9.2 mph) W 75% 996.0hPa (29.41 inHg) 0.0mm (0.00 in.)
12:59 13.0°C (55.4 °F) 18.5 kmh (11.5 mph) W 76% 995.0hPa (29.38 inHg) 0.0mm (0.00 in.)
11:59 13.0°C (55.4 °F) 14.8 kmh (9.2 mph) WSW 76% 995.0hPa (29.38 inHg) 0.0mm (0.00 in.)
10:59 13.6°C (56.5 °F) 11.1 kmh (6.9 mph) WNW 77% 994.0hPa (29.35 inHg) 0.0mm (0.00 in.)
9:59 14.6°C (58.3 °F) 13.0 kmh (8.1 mph) NW 77% 994.0hPa (29.35 inHg) 0.0mm (0.00 in.)
8:59 15.5°C (59.9 °F) 11.1 kmh (6.9 mph) WSW 76% 992.0hPa (29.29 inHg) 0.0mm (0.00 in.)
7:59 15.6°C (60.1 °F) 22.2 kmh (13.8 mph) W 76% 991.0hPa (29.26 inHg) 0.0mm (0.00 in.)
6:59 15.5°C (59.9 °F) 22.2 kmh (13.8 mph) W 75% 991.0hPa (29.26 inHg) 0.0mm (0.00 in.)
5:59 15.5°C (59.9 °F) 22.2 kmh (13.8 mph) W 75% 990.0hPa (29.23 inHg) 0.0mm (0.00 in.)
4:59 15.9°C (60.6 °F) 25.9 kmh (16.1 mph) W 75% 990.0hPa (29.23 inHg) 0.0mm (0.00 in.)
3:59 16.0°C (60.8 °F) 25.9 kmh (16.1 mph) WNW 75% 990.0hPa (29.23 inHg) 0.0mm (0.00 in.)
2:59 16.1°C (61.0 °F) 20.4 kmh (12.7 mph) W 75% 990.0hPa (29.23 inHg) 0.0mm (0.00 in.)

You need the latest version of Flash Player to view some of our content.


Why not download and install the latest version now?
It will only take you a moment and will ensure that you can view all the latest flash designed websites.

Translate this page

Animated Satellite

Click per aprire http://www.gozo.ws/Animation.php
copyright 2015 EUMETSAT

European Lightning Activity


Please click image for full size

Sponsored Links